Время (UTC), дата Ветер
(°,м/с) 
Видим.   Явления Облачность Т
(°С)
Тd
(°С)
f(%) Тe
(°С)
Pmin
(гПа)
dP
(гПа)
Po
(мм)
O2
(г/м3)
Тmin Tmax R s Состояние
почвы
00 12.11.14 080 (В) 10 км    10/0 верхняя 
[Cs]
+6 +2.8 80 +7  1024.6  -0.1  766  301           
03 12.11.14 тихо ()   10 км    10/0 верхняя 
[Cs]
+4.6 +2.3 85 +5  1024.3  -0.4  765  303  +4.6         
06 12.11.14 050 (СВ) 10 км    10/0 верхняя 
[Cs]
+5.4 +2.9 84 +6  1024.6  0.3  766  302  +4.2         
09 12.11.14 030 (СВ) 10 км    10/0 верхняя 
[Cs]
+10.6 +3.6 62 +12  1023.9  -0.6  765  296           
12 12.11.14 020 (С) 10 км    10/0 верхняя 
[Ci fib]
+13.8 +4.3 53 +15  1022.9  -0.9  764  293           
18 12.11.14 тихо ()   10 км    8/0 верхняя 
[Ci fib]
+5.5 +3.1 84 +6  1022.4  -0.4  764  301           
21 12.11.14 тихо ()   4000 м  дымка  5/0 верхняя 
[Ci fib]
+3.7 +2.3 91 +4  1021.5  -1  763  303           
00 13.11.14 тихо ()   4000 м  дымка  ясно 
+2.7 +1.8 94 +3  1021.2  -0.3  763  304           
06 13.11.14 070 (В) 0500 м  туман  ?/?  
+1.7 +1.1 96 +2  1021.2  0.1  763  305  +0.8         
09 13.11.14 080 (В) 4000 м  дымка{туман}  ясно 
+7.6 +3.7 76 +9  1020.7  -0.4  763  298           
12 13.11.14 060 (СВ) 10 км  {туман}  ясно 
+16 +2.1 39 +17  1019.1  -1.5  762  290           
15 13.11.14 030 (СВ) 10 км    ясно 
+11.7 +4.3 60 +13  1019.7  0.5  762  294    +16.6       
18 13.11.14 090 (В) 10 км    ясно 
+8.5 +3.9 73 +10  1019.6  0.1  762  297           
21 13.11.14 тихо ()   10 км    ясно 
+5.1 +3 86 +5  1019.6  762  301           
00 14.11.14 060 (СВ) 10 км    ясно 
+4.8 +2.9 87 +6  1019.5  0.1  762  301           
09 14.11.14 040 (СВ) 10 км    1/0 средняя 
[Ac trans]
+13.7 +3.7 51 +15  1019.6  -0.3  762  292           
12 14.11.14 030 (СВ) 10 км    1/0 средняя 
[Ac trans]
+15.7 +3.3 43 +17  1018.7  -0.8  761  290           
15 14.11.14 030 (СВ) 10 км    4/0 средняя 
[Ac trans]
+9.9 +3.7 65 +10  1019.3  0.5  762  296    +16.4       
18 14.11.14 тихо ()   10 км    3/0 средняя 
[Ac trans]
+6.6 +3.5 81 +7  1019.4  0.1  762  299           
21 14.11.14 020 (С) 10 км    6/0 
[Sc]
+5.7 +3.7 87 +7  1018.9  -0.6  761  300           
00 15.11.14 020 (С) 10 км    8/8 1000 м 
[Sc]
+5.2 +3.8 91 +6  1018.6  -0.3  761  300           
03 15.11.14 тихо ()   4000 м  дымка  8/6 1000 м верхняя 
[Sc|Ci]
+2.4 +1.4 93 +2  1018.7  761  304  +2.3         
06 15.11.14 030 (СВ) 4000 м  дымка  6/0 средняя 
[Ac trans]
+3.8 +1.7 86 +5  1019.6  762  303           
09 15.11.14 130 (ЮВ) 10 км    4/0 средняя 
[Ac trans]
+9.1 +2.4 63 +10  1018.3  -1.2  761  296           
12 15.11.14 200 (Ю) 10 км    9/0 средняя 
[Ac trans]
+9.9 +3.8 66 +11  1017.9  -0.5  761  295           
18 15.11.14 260 (З) 4000 м  дымка  9/0 средняя 
[Ac trans]
+6 +3.3 83 +7  1018.1  -0.1  761  299           
21 15.11.14 тихо ()   4000 м  дымка  8/0 средняя 
[Ac trans]
+4.9 +2.9 87 +5  1017.8  -0.3  761  301           
06 16.11.14 030 (СВ) 10 км    9/0 средняя 
[Ac trans]
+5.8 +3.9 88 +7  1019.2  1.1  762  300           
09 16.11.14 060 (СВ) 10 км    10/6 300 м средняя 
[St|Ac und]
+8.8 +5.5 80 +10  1019.1  0.1  762  296           
12 16.11.14 050 (СВ) 10 км    10/10 300 м 
[St]
+8.2 +5.1 81 +9  1019.3  0.2  762  297           
15 16.11.14 050 (СВ) 10 км    10/10 300 м 
[St]
+7.1 +4.5 84 +8  1019.9  0.6  762  299    +9.4       
18 16.11.14 040 (СВ) 10 км    10/10 300 м 
[St]
+5.1 +3.1 87 +5  1020.8  0.8  763  301           
21 16.11.14 050 (СВ) 10 км    10/10 300 м 
[St]
+4.7 +2.7 87 +4  1021.2  0.5  763  302           
00 17.11.14 040 (СВ) 10 км    10/10 300 м 
[St]
+3.9 +1.6 85 +3  1021.5  0.2  763  303           
06 17.11.14 060 (СВ) 10 км    10/8 300 м средняя 
[St|Ac und]
+3 -0.3 79 +2  1023  1.1  764  305  +2.7         
09 17.11.14 070 (В) 10 км    9/4 1000 м средняя 
[Sc|Ac cast]
+6.8 +1.1 67 +7  1022.3  -0.6  764  300           
12 17.11.14 050 (СВ) 10 км    3/0 верхняя 
[Ci fib]
+8.3 +1.5 62 +8  1021.9  -0.4  764  298           
18 17.11.14 050 (СВ) 10 км    10/0 верхняя 
[Ci fib]
+3.4 -0.2 77 +3  1022.5  0.3  764  304           
21 17.11.14 060 (СВ) 10 км    10/0 верхняя 
[Ci fib]
+2.1 -0.4 84 +1  1022.6  764  306           
00 18.11.14 060 (СВ) 10 км    6/0 верхняя 
[Ci fib]
+2.1 -0.1 85 +3  1022.5  0.1  764  306           
06 18.11.14 080 (В) 10 км  в посл. час ливневой дождь  10/10 600 м кучево-дожд. 
[Cb cap]
+3.1 +1.9 92 +3  1023.3  0.7  765  304           
09 18.11.14 070 (В) 10 км    10/10 1000 м кучево-дожд. 
[Cb cap]
+4.9 +3.4 90 +6  1022.9  -0.4  764  302           
12 18.11.14 050 (СВ) 10 км  слаб. ливневой дождь  10/10 1000 м кучево-дожд. 
[Cb cap]
+6.1 +4.9 92 +7  1022.7  -0.1  764  300           
15 18.11.14 тихо ()   10 км  в посл. час ливневой дождь  10/10 1000 м кучево-дожд. 
[Cb cap]
+6.7 +5.7 93 +7  1023.6  -0.1  765  300    +6.7       
18 18.11.14 060 (СВ) 10 км    10/10 1000 м кучево-дожд. 
[Cb cap]
+7.3 +6.4 94 +8  1023.9  0.3  765  299           
21 18.11.14 360 (С) 10 км    9/9 1000 м кучево-дожд. 
[Cb cap]
+7.3 +6.3 93 +8  1024.6  0.7  766  299           
00 19.11.14 110 (В) 10 км    10/10 1000 м 
[Sc]
+7.2 +6.4 95 +8  1025  0.4  766  300           
06 19.11.14 070 (В) 0200 м  туман  ?/?  
+7.4 +6.8 96 +8  1026.2  1.3  767  300           
09 19.11.14 050 (СВ) 0200 м  туман  ?/?  
+9.2 +8.6 96 +10  1026.1  0.1  767  297           
18 19.11.14 090 (В) 10 км    ясно 
+9.1 +6.4 83 +9  1025.2  -0.6  766  298           
21 19.11.14 070 (В) 10 км    ясно 
+6.2 +4.3 88 +7  1024.5  -0.7  766  301           
00 20.11.14 060 (СВ) 10 км    ясно 
+4.9 +3.2 89 +4  1023.5  -1.1  765  302           
06 20.11.14 060 (СВ) 10 км    4/3 1000 м верхняя 
[Sc|Ci fib]
+5.3 +2.9 84 +4  1022.5  0.1  764  302  +4.1         
09 20.11.14 090 (В) 10 км    5/0 верхняя 
[Ci fib]
+10.2 +4.7 69 +9  1021.5  -1  763  296           
12 20.11.14 070 (В) 10 км    10/0 верхняя 
[Ci fib]
+11.8 +4.6 61 +12  1020.6  -0.8  763  294           
18 20.11.14 060 (СВ) 3{12}  10 км    10/0 средняя, верхняя 
[Ac trans|Ci fib]
+5.8 +1.7 75 +5  1020.5  -0.4  763  301           
21 20.11.14 050 (СВ) 10 км    3/0 верхняя 
[Ci fib]
+3.8 +0.7 80 +3  1020.5  763  303           
00 21.11.14 050 (СВ) 10 км    3/3 300 м 
[St]
+3.1 +0.1 81 +3  1019.8  -0.8  762  304           
06 21.11.14 060 (СВ) 10 км    9/0 средняя, верхняя 
[Ac trans|Ci fib]
+2 -0.9 81 +1  1019.9  0.5  762  305  +1.7         
09 21.11.14 050 (СВ) 10 км    10/6 300 м средняя, верхняя 
[St|Ac trans|Ci fib]
+5.4 +0.8 72 +5  1019.4  -0.4  762  301           
12 21.11.14 050 (СВ) 10 км    10/0 средняя, верхняя 
[Ac trans|Ci fib]
+7 +1.6 68 +6  1018.9  -0.5  761  299           
18 21.11.14 060 (СВ) 4{10}  10 км    8/8 1000 м средняя, верхняя 
[Sc|Ac trans|Ci fib]
+2.6 -0.6 79 +1  1019  -0.2  761  304           
21 21.11.14 050 (СВ) 3{10}  10 км    10/10 1000 м 
[Sc]
+3.2 -0.3 78 +2  1019.3  0.3  762  303           
00 22.11.14 060 (СВ) 10 км    10/10 1000 м 
[Sc]
+2.9 -1.2 74 +2  1018.3  -0.9  761  304           
06 22.11.14 040 (СВ) 10 км    8/3 1000 м верхняя 
[Sc|Ci fib]
-0 -5 69 -2  1018.5  0.5  761  307  -0.7         
09 22.11.14 040 (СВ) 3{10}  10 км    3/0 средняя, верхняя 
[Ac trans|Ci fib]
+3.6 -5 53 +2  1018.3  -0.1  761  303           
12 22.11.14 030 (СВ) 4-11{12}  10 км    3/0 средняя 
[Ac trans]
+4.7 -5.6 47 +3  1018.6  0.3  761  302           
18 22.11.14 050 (СВ) 3{12}  10 км    10/10 300 м 
[St]
-0.1 -3.6 77 -2  1022  1.2  764  308           
21 22.11.14 040 (СВ) 2{11}  10 км    9/6 300 м средняя 
[St|Ac trans]
-0.8 -4.9 74 -2  1022.7  0.7  764  309           
00 23.11.14 040 (СВ) 10 км    8/8 300 м 
[St]
-1.4 -5.3 75 -3  1023  0.3  764  310           
06 23.11.14 020 (С) 10 км    5/5 300 м 
[St]
-3.4 -7.4 74 -5  1025.1  1.7  766  313  -3.5         
09 23.11.14 030 (СВ) 10 км    9/3 1000 м средняя 
[Sc|Ac trans]
+1.1 -6.1 59 1026  767  308           
12 23.11.14 030 (СВ) 10 км    8/0 средняя 
[Ac trans]
+1.7 -5.5 59 1025.9  -0.1  767  308           
18 23.11.14 040 (СВ) 10 км    ясно 
-1.6 -6.2 71 -3  1027.1  0.7  767  312           
21 23.11.14 040 (СВ) 10 км    ясно 
-2.7 -6.5 75 -2  1027.8  0.7  768  313           
00 24.11.14 030 (СВ) 10 км    ясно 
-3.6 -7.3 76 -5  1028  0.2  768  314           
06 24.11.14 050 (СВ) 10 км    1/0 средняя 
[Ac trans]
-2.9 -7 73 -4  1028.9  0.8  769  314  -4.7         
09 24.11.14 040 (СВ) 10 км    ясно 
+3.4 -9.4 39 +2  1028.9  0.1  769  307           
12 24.11.14 040 (СВ) 3-11{13}  10 км    ясно 
+3.7 -4.9 53 +2  1028.4  -0.5  768  306           
15 24.11.14 050 (СВ) 2{11}  10 км    1/1 1000 м 
[Sc]
-2.4 -6.1 76 -3  1029.8  1.3  769  313    +4.9       
18 24.11.14 040 (СВ) 10 км    10/10 300 м 
[St]
-2.9 -6.3 77 -4  1030.3  0.4  770  314           
21 24.11.14 040 (СВ) 10 км    10/10 300 м 
[St]
-3.3 -6.6 78 -4  1030.4  0.1  770  315           
06 25.11.14 060 (СВ) 10 км    8/8 300 м 
[St]
-1.4 -4.9 77 -3  1027.7  -0.8  768  312           
09 25.11.14 070 (В) 3{10}  10 км    10/10 600 м 
[Sc]
+2.1 -3.5 66 +1  1026.5  -1.1  767  307           
15 25.11.14 040 (СВ) 10 км    ясно 
-0.5 -3.7 79 -1  1025.5  0.1  766  310    +3.8       
18 25.11.14 030 (СВ) 10 км    4/0 верхняя 
[Ci fib]
-1.4 -3.9 83 -2  1024.7  -0.8  766  311           
21 25.11.14 030 (СВ) 10 км    ясно 
-1.9 -3.8 87 -3  1023.9  -0.8  765  311           
00 26.11.14 030 (СВ) 10 км    ясно 
-1.7 -3.8 86 -1  1022.7  -1.2  764  310           
06 26.11.14 030 (СВ) 10 км    ясно 
-2 -4.8 81 -1  1022.1  0.2  764  311  -3.4         
09 26.11.14 050 (СВ) 10 км    9/9 300 м 
[St]
+3 -2.4 68 +2  1021.2  -0.9  763  304           
12 26.11.14 040 (СВ) 10 км    ясно 
+5.4 -1.7 60 +6  1020.1  -1  762  301           
15 26.11.14 030 (СВ) 10 км    ясно 
+1.1 -2.6 76 +2  1020.6  0.4  763  306    +5.6       
18 26.11.14 040 (СВ) 10 км    10/10 300 м 
[St]
-0.6 -3 84 1020.6  763  308           
21 26.11.14 030 (СВ) 10 км    10/10 300 м 
[St]
-0.5 -2.3 88 -1  1020.4  -0.2  762  308           
00 27.11.14 030 (СВ) 10 км    10/10 300 м 
[St]
-0.6 -2.7 86 1020.6  0.1  763  308           
06 27.11.14 060 (СВ) 10 км    10/10 300 м 
[St]
+0.2 -2.2 84 -1  1021.3  0.8  763  308           
09 27.11.14 050 (СВ) 10 км    10/10 300 м 
[St]
+2 -1.9 75 +3  1021.4  0.1  763  306           
12 27.11.14 тихо ()   10 км    9/4 1000 м средняя 
[Sc|Ac trans]
+3.2 -1.6 71 +3  1021.4  0.1  763  304           
15 27.11.14 210 (ЮЗ) 10 км    5/3 1000 м средняя 
[Sc|Ac trans]
+1.7 -1.8 78 +2  1022.9  1.4  764  306    +3.7       
18 27.11.14 300 (СЗ) 10 км    10/10 600 м 
[Sc]
+2.6 -1.3 75 +3  1023.5  0.6  765  305           
21 27.11.14 260 (З) 10 км  слаб. дождь  10/10 600 м 
[Sc]
+1.7 -1.4 80 +1  1024.8  1.3  766  307           
06 28.11.14 тихо ()   4000 м  дымка  10/10 1000 м 
[Sc]
+1.5 -0.8 85 +2  1028  1.7  768  308           
09 28.11.14 100 (В) 10 км    10/10 1000 м 
[Sc]
+3.6 -2.4 65 +4  1028.2  0.3  768  306           
12 28.11.14 060 (СВ) 10 км    9/9 1000 м 
[Sc]
+4.4 -2.2 62 +4  1028.3  768  305           
18 28.11.14 030 (СВ) 10 км    10/10 600 м 
[Sc]
+3.3 -0.7 75 +4  1029.2  0.1  769  306           
21 28.11.14 тихо ()   10 км    3/0 верхняя 
[Ci fib]
-0.7 -2.7 86 -1  1029.5  0.3  769  311           
00 29.11.14 тихо ()   10 км    4/0 верхняя 
[Ci fib]
-1.3 -2.7 90 -1  1029.4  0.1  769  312           
06 29.11.14 050 (СВ) 10 км    9/8 1000 м средняя 
[Sc|Ac trans]
+0.4 -1.3 88 +1  1028.1  768  309           
09 29.11.14 040 (СВ) 2000 м  слаб. дождь  10/10 600 м 
[Ns]
+1.7 +0.2 90 +2  1027.4  -0.7  768  307           
12 29.11.14 080 (В) 2000 м  слаб. дождь  10/10 600 м 
[Ns]
+2.5 +1.1 90 +2  1025.4  -2  766  306           
18 29.11.14 060 (СВ) 10 км  {дождь}  10/10 300 м 
[St]
+2.7 +1.3 91 +2  1021  -3.2  763  304           
21 29.11.14 060 (СВ) 4000 м  слаб. дождь  10/10 300 м 
[Frnb|Ns]
+3.3 +2.1 92 +3  1018.1  -2.9  761  303           
00 30.11.14 100 (В) 4000 м  слаб. дождь  10/10 300 м 
[Frnb|Ns]
+4.8 +3.3 90 +4  1015.8  -3.2  759  300           
03 30.11.14 240 (ЮЗ) 4000 м  слаб. дождь  10/10 300 м 
[Frnb|Ns]
+5.9 +4.8 93 +6  1014.9  -0.9  758  298  +2.3       
06 30.11.14 270 (З) 1000 м  в посл. час дождь  10/10 200 м 
[St]
+3.3 +2.4 94 +3  1015.9  0.9  759  302           
09 30.11.14 260 (З) 10 км  {туман}  5/3 1000 м средняя 
[Sc diur, vesp|Ac trans]
+5.5 +1.4 75 +4  1015.4  -0.4  759  299           
18 30.11.14 270 (З) 10 км  слаб. снег  10/10 300 м 
[Frnb]
+0.7 -1.1 88 1017.6  0.6  760  306           
21 30.11.14 260 (З) 10 км  {снег}  10/10 300 м 
[St]
+0.7 -1.7 84 -1  1018.2  0.6  761  306           
09 01.12.14 260 (З) 4000 м  слаб. снег  10/10 300 м 
[Frnb]
-0.8 -3 85 -3  1019.8  0.1  762  308           
Время (UTC), дата Ветер
(°,м/с) 
Видим.   Явления Облачность Т
(°С)
Тd
(°С)
f(%) Тe
(°С)
Pmin
(гПа)
dP
(гПа)
Po
(мм)
O2
(г/м3)
Тmin Tmax R s Состояние
почвы